| time (UTC) | temp C | wind direction | speed KPH | gust KPH | rain 1hr cm | rain 24hr cm | rain mn cm | humidity % | barometer mb |
| 20260504213903 | 23 | 318 | 4.8 | 4.8 | 0.00 | 0.05 | 0.05 | 50 | 1012.9 |
| 20260504213358 | 24 | 7 | 4.8 | 9.7 | 0.00 | 0.05 | 0.05 | 51 | 1013.0 |
| 20260504212856 | 25 | 339 | 4.8 | 4.8 | 0.00 | 0.05 | 0.05 | 50 | 1012.9 |
| 20260504212351 | 24 | 335 | 1.6 | 3.2 | 0.00 | 0.05 | 0.05 | 48 | 1012.7 |
| 20260504211850 | 24 | 338 | 4.8 | 4.8 | 0.00 | 0.05 | 0.05 | 49 | 1012.9 |
| 20260504211346 | 23 | 344 | 1.6 | 3.2 | 0.00 | 0.05 | 0.05 | 46 | 1012.9 |
| 20260504210843 | 23 | 329 | 6.4 | 8.0 | 0.00 | 0.05 | 0.05 | 49 | 1013.0 |
| 20260504210340 | 23 | 326 | 6.4 | 8.0 | 0.00 | 0.05 | 0.05 | 55 | 1012.9 |
| 20260504205837 | 23 | 333 | 3.2 | 3.2 | 0.00 | 0.05 | 0.05 | 53 | 1013.0 |
| 20260504205335 | 24 | 320 | 3.2 | 3.2 | 0.00 | 0.05 | 0.05 | 52 | 1013.4 |
| 20260504204833 | 24 | 302 | 4.8 | 8.0 | 0.00 | 0.05 | 0.05 | 50 | 1013.4 |
| 20260504204331 | 23 | 301 | 1.6 | 3.2 | 0.00 | 0.05 | 0.05 | 49 | 1013.2 |
| 20260504203830 | 23 | 353 | 1.6 | 1.6 | 0.00 | 0.05 | 0.05 | 53 | 1013.6 |
| 20260504203327 | 25 | 312 | 1.6 | 1.6 | 0.00 | 0.05 | 0.05 | 49 | 1013.5 |
| 20260504202822 | 24 | 154 | 1.6 | 4.8 | 0.00 | 0.05 | 0.05 | 50 | 1013.5 |
| 20260504202320 | 24 | 320 | 6.4 | 9.7 | 0.00 | 0.05 | 0.05 | 50 | 1013.5 |
| 20260504201816 | 23 | 350 | 1.6 | 1.6 | 0.00 | 0.05 | 0.05 | 50 | 1013.8 |
| 20260504201314 | 23 | 322 | 8.0 | 9.7 | 0.00 | 0.05 | 0.05 | 55 | 1013.6 |
| 20260504200811 | 23 | 276 | 1.6 | 3.2 | 0.00 | 0.05 | 0.05 | 50 | 1013.6 |
| 20260504200308 | 24 | 355 | 1.6 | 1.6 | 0.00 | 0.05 | 0.05 | 50 | 1013.9 |
| 20260504195803 | 23 | 340 | 8.0 | 11.3 | 0.00 | 0.05 | 0.05 | 52 | 1014.0 |
| 20260504195300 | 24 | 330 | 1.6 | 1.6 | 0.00 | 0.05 | 0.05 | 51 | 1014.0 |
| 20260504194757 | 23 | 325 | 1.6 | 1.6 | 0.00 | 0.05 | 0.05 | 50 | 1014.0 |
| 20260504194253 | 23 | 328 | 1.6 | 3.2 | 0.00 | 0.05 | 0.05 | 51 | 1014.2 |
| 20260504193749 | 23 | 333 | 3.2 | 3.2 | 0.00 | 0.05 | 0.05 | 52 | 1014.2 |
| 20260504193247 | 23 | 334 | 3.2 | 3.2 | 0.00 | 0.05 | 0.05 | 50 | 1014.4 |
| 20260504192745 | 23 | 321 | 4.8 | 4.8 | 0.00 | 0.05 | 0.05 | 51 | 1014.3 |
| 20260504192243 | 23 | 359 | 1.6 | 1.6 | 0.00 | 0.05 | 0.05 | 51 | 1014.5 |
| 20260504191741 | 22 | 4 | 1.6 | 3.2 | 0.00 | 0.05 | 0.05 | 52 | 1014.6 |
| 20260504191238 | 23 | 47 | 6.4 | 8.0 | 0.00 | 0.05 | 0.05 | 49 | 1014.5 |
| 20260504190733 | 23 | 312 | 1.6 | 1.6 | 0.00 | 0.05 | 0.05 | 51 | 1014.9 |
| 20260504190230 | 22 | 317 | 0.0 | 1.6 | 0.00 | 0.05 | 0.05 | 52 | 1014.9 |
| 20260504185726 | 22 | 54 | 3.2 | 8.0 | 0.00 | 0.05 | 0.05 | 50 | 1014.8 |
| 20260504185223 | 22 | 297 | 1.6 | 3.2 | 0.00 | 0.05 | 0.05 | 51 | 1015.1 |
| 20260504184719 | 22 | 219 | 4.8 | 4.8 | 0.00 | 0.05 | 0.05 | 50 | 1015.1 |
| 20260504184215 | 22 | 321 | 4.8 | 4.8 | 0.00 | 0.05 | 0.05 | 53 | 1015.2 |
| 20260504183711 | 22 | 266 | 3.2 | 4.8 | 0.00 | 0.05 | 0.05 | 52 | 1015.2 |
| 20260504183208 | 22 | 311 | 1.6 | 1.6 | 0.00 | 0.05 | 0.05 | 53 | 1015.4 |
| 20260504182707 | 21 | 349 | 0.0 | 0.0 | 0.00 | 0.05 | 0.05 | 55 | 1015.4 |
| 20260504182203 | 22 | 322 | 4.8 | 8.0 | 0.00 | 0.05 | 0.05 | 51 | 1015.3 |
| 20260504181701 | 21 | 313 | 4.8 | 8.0 | 0.00 | 0.05 | 0.05 | 51 | 1015.7 |
| 20260504181158 | 21 | 336 | 6.4 | 8.0 | 0.00 | 0.05 | 0.05 | 56 | 1015.7 |
| 20260504180657 | 21 | 44 | 1.6 | 4.8 | 0.00 | 0.05 | 0.05 | 51 | 1015.7 |
| 20260504180155 | 21 | 323 | 9.7 | 9.7 | 0.00 | 0.05 | 0.05 | 55 | 1015.7 |
| 20260504175652 | 21 | 341 | 3.2 | 4.8 | 0.00 | 0.05 | 0.05 | 55 | 1015.9 |
| 20260504175149 | 21 | 30 | 3.2 | 8.0 | 0.00 | 0.05 | 0.05 | 54 | 1015.8 |
| 20260504174647 | 20 | 359 | 1.6 | 1.6 | 0.00 | 0.05 | 0.05 | 55 | 1015.9 |
| 20260504174144 | 20 | 115 | 3.2 | 4.8 | 0.00 | 0.05 | 0.05 | 55 | 1016.0 |
| 20260504173641 | 20 | 301 | 1.6 | 3.2 | 0.00 | 0.05 | 0.05 | 56 | 1016.0 |
| 20260504173138 | 20 | 73 | 3.2 | 3.2 | 0.00 | 0.05 | 0.05 | 57 | 1016.2 |
| 20260504172635 | 20 | 331 | 3.2 | 4.8 | 0.00 | 0.05 | 0.05 | 60 | 1016.1 |
| 20260504172131 | 20 | 346 | 8.0 | 11.3 | 0.00 | 0.05 | 0.05 | 61 | 1016.3 |
| 20260504171628 | 19 | 332 | 3.2 | 3.2 | 0.00 | 0.05 | 0.05 | 60 | 1016.2 |
| 20260504171125 | 19 | 189 | 3.2 | 4.8 | 0.00 | 0.05 | 0.05 | 60 | 1016.4 |
| 20260504170621 | 18 | 277 | 1.6 | 3.2 | 0.00 | 0.05 | 0.05 | 62 | 1016.6 |
| 20260504170119 | 18 | 39 | 1.6 | 3.2 | 0.00 | 0.05 | 0.05 | 62 | 1016.8 |
| 20260504151004 | 11 | 336 | 0.0 | 0.0 | 0.00 | 0.05 | 0.05 | 90 | 1018.6 |
| 20260504150501 | 12 | 334 | 0.0 | 0.0 | 0.13 | 0.05 | 0.05 | 89 | 1018.5 |
| 20260504140927 | 13 | 32 | 1.6 | 1.6 | 0.00 | 0.00 | 0.00 | 70 | 1019.7 |
| 20260504140424 | 12 | 339 | 0.0 | 0.0 | 0.00 | 0.00 | 0.00 | 76 | 1019.6 |
| 20260504130349 | 10 | 332 | 0.0 | 0.0 | 0.00 | 0.00 | 0.00 | 79 | 1019.0 |
| 20260504120312 | 7 | 351 | 1.6 | 1.6 | 0.00 | 0.00 | 0.00 | 87 | 1017.6 |
| 20260504110236 | 4 | 340 | 0.0 | 0.0 | 0.00 | 0.00 | 0.00 | 96 | 1017.6 |
| 20260504100159 | 4 | 333 | 0.0 | 0.0 | 0.00 | 0.00 | 0.00 | 94 | 1017.6 |
| 20260504090122 | 4 | 333 | 0.0 | 0.0 | 0.00 | 0.00 | 0.00 | 94 | 1017.6 |
| 20260504081552 | 4 | 336 | 0.0 | 0.0 | 0.00 | 0.00 | 0.00 | 93 | 1017.7 |
| 20260504081048 | 4 | 331 | 0.0 | 0.0 | 0.00 | 0.00 | 0.00 | 93 | 1017.7 |
| 20260504080545 | 4 | 328 | 0.0 | 0.0 | 0.00 | 0.00 | 0.00 | 93 | 1017.5 |
| 20260504050358 | 6 | 331 | 0.0 | 0.0 | 0.00 | 0.00 | 0.00 | 88 | 1017.6 |
| 20260504045855 | 6 | 332 | 0.0 | 0.0 | 0.00 | 0.00 | 0.00 | 87 | 1017.9 |
| 20260504045350 | 6 | 337 | 0.0 | 0.0 | 0.00 | 0.00 | 0.00 | 86 | 1018.0 |
| 20260504044847 | 6 | 339 | 0.0 | 0.0 | 0.00 | 0.00 | 0.00 | 86 | 1017.7 |
| 20260504044344 | 6 | 339 | 0.0 | 0.0 | 0.00 | 0.00 | 0.00 | 86 | 1017.9 |
| 20260504043842 | 6 | 332 | 0.0 | 0.0 | 0.00 | 0.00 | 0.00 | 85 | 1017.7 |
| 20260504043338 | 6 | 332 | 0.0 | 0.0 | 0.00 | 0.00 | 0.00 | 84 | 1017.9 |
| 20260504042836 | 7 | 338 | 0.0 | 0.0 | 0.00 | 0.00 | 0.00 | 83 | 1017.6 |
| 20260504042332 | 7 | 335 | 0.0 | 0.0 | 0.00 | 0.00 | 0.00 | 84 | 1017.9 |
| 20260504041828 | 7 | 339 | 0.0 | 0.0 | 0.00 | 0.00 | 0.00 | 83 | 1017.8 |
| 20260504041325 | 6 | 335 | 0.0 | 0.0 | 0.00 | 0.00 | 0.00 | 84 | 1017.6 |
| 20260504040821 | 7 | 331 | 0.0 | 0.0 | 0.00 | 0.00 | 0.00 | 84 | 1017.6 |
| 20260504040319 | 7 | 333 | 0.0 | 0.0 | 0.00 | 0.00 | 0.00 | 83 | 1017.7 |
| 20260504035814 | 7 | 339 | 0.0 | 0.0 | 0.00 | 0.00 | 0.00 | 82 | 1017.6 |
| 20260504035312 | 7 | 2 | 0.0 | 0.0 | 0.00 | 0.00 | 0.00 | 82 | 1017.7 |
| 20260504034809 | 7 | 335 | 0.0 | 0.0 | 0.00 | 0.00 | 0.00 | 82 | 1017.7 |
| 20260504034307 | 7 | 333 | 0.0 | 0.0 | 0.00 | 0.00 | 0.00 | 82 | 1017.7 |
| 20260504033803 | 7 | 333 | 0.0 | 0.0 | 0.00 | 0.00 | 0.00 | 81 | 1017.6 |
| 20260504033301 | 7 | 333 | 0.0 | 1.6 | 0.00 | 0.00 | 0.00 | 80 | 1017.7 |
| 20260504032758 | 7 | 338 | 0.0 | 0.0 | 0.00 | 0.00 | 0.00 | 80 | 1017.6 |
| 20260504032255 | 7 | 17 | 1.6 | 1.6 | 0.00 | 0.00 | 0.00 | 79 | 1017.7 |
| 20260504031751 | 8 | 356 | 0.0 | 0.0 | 0.00 | 0.00 | 0.00 | 79 | 1017.6 |
| 20260504031249 | 8 | 338 | 0.0 | 0.0 | 0.00 | 0.00 | 0.00 | 78 | 1017.4 |
| 20260504030744 | 8 | 350 | 0.0 | 0.0 | 0.00 | 0.00 | 0.00 | 79 | 1017.6 |
| 20260504030242 | 8 | 330 | 0.0 | 0.0 | 0.00 | 0.00 | 0.00 | 78 | 1017.4 |
| 20260504025738 | 8 | 339 | 0.0 | 0.0 | 0.00 | 0.00 | 0.00 | 77 | 1017.4 |
| 20260504025235 | 8 | 352 | 0.0 | 0.0 | 0.00 | 0.00 | 0.00 | 77 | 1017.5 |
| 20260504024732 | 8 | 358 | 0.0 | 0.0 | 0.00 | 0.00 | 0.00 | 77 | 1017.6 |
| 20260504024229 | 8 | 339 | 0.0 | 0.0 | 0.00 | 0.00 | 0.00 | 77 | 1017.2 |
| 20260504023726 | 8 | 345 | 0.0 | 0.0 | 0.00 | 0.00 | 0.00 | 76 | 1017.4 |
| 20260504023222 | 8 | 336 | 0.0 | 0.0 | 0.00 | 0.00 | 0.00 | 75 | 1017.6 |
| 20260504022718 | 8 | 331 | 0.0 | 0.0 | 0.00 | 0.00 | 0.00 | 75 | 1017.6 |
| 20260504022214 | 9 | 332 | 0.0 | 1.6 | 0.00 | 0.00 | 0.00 | 74 | 1017.4 |
| 20260504021712 | 9 | 335 | 0.0 | 0.0 | 0.00 | 0.00 | 0.00 | 73 | 1017.2 |
| 20260504021209 | 10 | 334 | 0.0 | 0.0 | 0.00 | 0.00 | 0.00 | 72 | 1017.3 |
| 20260504020706 | 10 | 344 | 0.0 | 0.0 | 0.00 | 0.00 | 0.00 | 71 | 1017.2 |
| 20260504020201 | 10 | 342 | 0.0 | 0.0 | 0.00 | 0.00 | 0.00 | 69 | 1017.1 |
| 20260504015658 | 10 | 332 | 0.0 | 1.6 | 0.00 | 0.00 | 0.00 | 69 | 1017.3 |
| 20260504015154 | 10 | 332 | 1.6 | 1.6 | 0.00 | 0.00 | 0.00 | 68 | 1017.3 |
| 20260504014650 | 10 | 350 | 0.0 | 1.6 | 0.00 | 0.00 | 0.00 | 67 | 1017.3 |
| 20260504014148 | 11 | 5 | 1.6 | 1.6 | 0.00 | 0.00 | 0.00 | 67 | 1016.9 |
| 20260504013645 | 11 | 333 | 0.0 | 0.0 | 0.00 | 0.00 | 0.00 | 66 | 1017.0 |
| 20260504013142 | 11 | 348 | 0.0 | 0.0 | 0.00 | 0.00 | 0.00 | 65 | 1017.0 |
| 20260504012639 | 12 | 345 | 0.0 | 0.0 | 0.00 | 0.00 | 0.00 | 61 | 1017.2 |
| 20260504012137 | 12 | 336 | 0.0 | 0.0 | 0.00 | 0.00 | 0.00 | 61 | 1016.9 |
| 20260504011633 | 12 | 341 | 0.0 | 0.0 | 0.00 | 0.00 | 0.00 | 60 | 1016.9 |
| 20260504011130 | 12 | 331 | 0.0 | 0.0 | 0.00 | 0.00 | 0.00 | 60 | 1017.1 |
| 20260504010626 | 12 | 340 | 0.0 | 0.0 | 0.00 | 0.00 | 0.00 | 58 | 1017.2 |
| 20260504010122 | 13 | 332 | 0.0 | 0.0 | 0.00 | 0.00 | 0.00 | 55 | 1017.3 |
| 20260504005619 | 13 | 332 | 0.0 | 0.0 | 0.00 | 0.00 | 0.00 | 53 | 1017.1 |
| 20260504005116 | 13 | 332 | 0.0 | 0.0 | 0.00 | 0.00 | 0.00 | 53 | 1016.9 |
| 20260504004614 | 13 | 330 | 0.0 | 0.0 | 0.00 | 0.00 | 0.00 | 51 | 1016.7 |
| 20260504004111 | 13 | 329 | 0.0 | 0.0 | 0.00 | 0.00 | 0.00 | 51 | 1016.8 |
| 20260504003607 | 14 | 330 | 0.0 | 0.0 | 0.00 | 0.00 | 0.00 | 50 | 1016.8 |
| 20260504003104 | 14 | 329 | 0.0 | 1.6 | 0.00 | 0.00 | 0.00 | 49 | 1016.7 |
| 20260504002601 | 15 | 339 | 0.0 | 1.6 | 0.00 | 0.00 | 0.00 | 49 | 1016.4 |
| 20260504002058 | 15 | 315 | 3.2 | 3.2 | 0.00 | 0.00 | 0.00 | 49 | 1016.4 |
| 20260504001556 | 15 | 327 | 1.6 | 1.6 | 0.00 | 0.00 | 0.00 | 48 | 1016.3 |
| 20260504001051 | 15 | 334 | 4.8 | 4.8 | 0.00 | 0.00 | 0.00 | 48 | 1016.3 |
| 20260504000549 | 15 | 333 | 1.6 | 1.6 | 0.00 | 0.00 | 0.00 | 47 | 1016.3 |
| 20260504000047 | 15 | 323 | 1.6 | 1.6 | 0.00 | 0.00 | 0.00 | 47 | 1016.7 |
| 20260503235545 | 15 | 333 | 3.2 | 3.2 | 0.00 | 0.00 | 0.00 | 47 | 1016.5 |
| 20260503235041 | 15 | 332 | 3.2 | 3.2 | 0.00 | 0.00 | 0.00 | 46 | 1016.8 |
| 20260503234538 | 15 | 344 | 6.4 | 8.0 | 0.00 | 0.00 | 0.00 | 45 | 1016.4 |
| 20260503234037 | 16 | 336 | 4.8 | 4.8 | 0.00 | 0.00 | 0.00 | 45 | 1016.6 |
| 20260503233533 | 16 | 320 | 3.2 | 3.2 | 0.00 | 0.00 | 0.00 | 44 | 1016.4 |
| 20260503233029 | 16 | 323 | 1.6 | 1.6 | 0.00 | 0.00 | 0.00 | 44 | 1016.5 |
| 20260503232526 | 16 | 327 | 1.6 | 3.2 | 0.00 | 0.00 | 0.00 | 44 | 1016.9 |
| 20260503232024 | 16 | 321 | 1.6 | 1.6 | 0.00 | 0.00 | 0.00 | 44 | 1016.7 |
| 20260503231521 | 16 | 337 | 1.6 | 3.2 | 0.00 | 0.00 | 0.00 | 43 | 1016.7 |
| 20260503231018 | 16 | 324 | 1.6 | 1.6 | 0.00 | 0.00 | 0.00 | 42 | 1016.8 |
| 20260503230514 | 16 | 327 | 6.4 | 8.0 | 0.00 | 0.00 | 0.00 | 42 | 1016.6 |
| 20260503230012 | 16 | 322 | 1.6 | 3.2 | 0.00 | 0.00 | 0.00 | 41 | 1016.7 |
| 20260503225509 | 16 | 311 | 4.8 | 8.0 | 0.00 | 0.00 | 0.00 | 41 | 1016.7 |
| 20260503225004 | 16 | 319 | 4.8 | 4.8 | 0.00 | 0.00 | 0.00 | 43 | 1016.8 |
| 20260503224501 | 16 | 332 | 4.8 | 8.0 | 0.00 | 0.00 | 0.00 | 42 | 1016.9 |
| 20260503223958 | 16 | 329 | 3.2 | 3.2 | 0.00 | 0.00 | 0.00 | 41 | 1017.1 |
| 20260503223451 | 17 | 355 | 4.8 | 8.0 | 0.00 | 0.00 | 0.00 | 41 | 1016.6 |
| 20260503222946 | 16 | 348 | 6.4 | 8.0 | 0.00 | 0.00 | 0.00 | 42 | 1016.8 |
| 20260503222445 | 17 | 333 | 4.8 | 4.8 | 0.00 | 0.00 | 0.00 | 42 | 1016.8 |
| 20260503221943 | 17 | 324 | 8.0 | 11.3 | 0.00 | 0.00 | 0.00 | 41 | 1016.8 |
| 20260503221441 | 17 | 318 | 8.0 | 9.7 | 0.00 | 0.00 | 0.00 | 40 | 1017.2 |
| 20260503220937 | 17 | 337 | 4.8 | 4.8 | 0.00 | 0.00 | 0.00 | 41 | 1017.1 |
| 20260503220433 | 17 | 330 | 4.8 | 11.3 | 0.00 | 0.00 | 0.00 | 41 | 1017.0 |
| 20260503215931 | 17 | 328 | 3.2 | 4.8 | 0.00 | 0.00 | 0.00 | 40 | 1017.1 |
| 20260503215428 | 17 | 311 | 3.2 | 3.2 | 0.00 | 0.00 | 0.00 | 39 | 1017.1 |
| 20260503214926 | 17 | 331 | 1.6 | 3.2 | 0.00 | 0.00 | 0.00 | 40 | 1017.1 |
| 20260503214423 | 17 | 322 | 1.6 | 1.6 | 0.00 | 0.00 | 0.00 | 40 | 1017.3 |